Theta_e
330 329 326 326 328 328 327 327 329 327 327 328 328 327 327 326 324 324 327 327 326 327 328 329 328 328 329 330 329 329 330 331 331 332 333 331 330 329 328 326 322 317 313 310 307 307 306 306 307 306 307 307 307 306 306 306 306 306 306 305 305 305 305 306 306 306 307 307 307 308 308 308 307 307 308 308 309 309 310 310 310 310 309 307 306
331 330 328 328 328 328 327 328 328 328 328 328 329 328 328 328 326 325 327 326 326 327 328 328 327 328 329 330 330 329 330 331 331 332 332 332 331 330 329 327 325 321 319 316 312 309 307 306 306 305 305 305 306 306 306 306 305 305 305 306 305 305 305 305 306 306 306 306 306 307 307 307 307 307 307 308 308 308 309 309 309 310 310 309 307
331 329 329 329 328 327 328 328 328 328 329 328 329 329 329 330 329 327 327 326 328 328 328 328 327 327 329 329 329 329 329 330 330 331 332 331 331 331 330 328 326 324 322 321 319 316 313 309 306 306 306 305 305 305 305 305 305 305 305 305 305 305 305 305 305 305 305 306 305 306 306 307 306 307 307 307 307 308 309 309 309 309 310 310 309
329 329 329 329 328 326 327 327 326 328 329 328 329 329 329 330 329 328 327 328 329 329 327 327 327 326 327 328 328 328 328 329 329 330 330 331 331 331 330 328 327 326 324 323 323 322 320 316 311 307 306 306 306 305 305 305 305 305 305 305 305 305 305 305 304 304 305 305 305 305 305 306 306 307 307 307 307 308 308 309 309 309 309 309 309
328 330 330 329 328 325 326 327 326 327 328 328 328 329 329 330 330 328 328 328 329 328 326 326 325 325 325 326 325 327 328 328 328 328 329 330 330 330 330 329 328 327 326 325 325 323 323 323 320 314 309 308 307 307 307 306 306 305 305 305 305 305 305 305 305 304 304 304 304 304 304 305 305 306 306 307 307 307 308 308 309 309 309 309 309
328 329 329 329 327 325 327 329 328 328 327 327 327 328 328 329 330 329 329 329 328 327 326 325 325 323 323 324 322 325 327 327 328 328 328 329 329 330 329 329 328 328 327 325 324 323 323 324 325 323 319 314 312 310 309 308 308 307 306 306 306 306 306 305 305 304 304 304 304 304 304 304 304 305 305 306 307 307 308 308 308 309 309 309 309
326 327 328 327 326 324 325 328 327 327 328 327 327 328 329 329 328 328 328 329 328 327 326 325 326 324 324 323 322 325 327 327 327 328 328 328 329 329 329 328 328 327 327 327 325 325 325 325 325 324 324 322 319 317 315 312 311 309 308 308 309 308 308 307 305 305 304 304 304 304 304 304 304 304 305 305 306 307 308 308 309 309 309 309 309
326 326 328 326 326 326 324 325 325 325 327 328 328 328 328 328 328 327 328 328 328 327 327 326 325 325 326 326 325 327 327 327 328 328 328 328 328 328 329 328 328 328 327 327 327 327 327 327 325 323 323 323 323 322 321 318 316 313 311 311 311 311 310 310 308 307 305 304 304 304 304 304 303 304 304 304 305 306 307 308 309 309 309 310 310
328 327 328 326 327 328 326 326 326 324 325 327 328 328 327 326 327 327 327 328 327 326 327 326 325 325 327 328 327 327 328 328 328 328 328 328 328 328 328 328 328 328 327 327 327 327 327 327 327 325 323 322 323 323 322 321 320 319 315 313 312 312 312 312 312 311 309 306 305 304 304 304 303 304 304 304 305 305 307 308 309 309 310 310 310
328 327 327 327 327 327 326 326 325 324 324 326 328 328 326 325 326 327 327 327 326 325 325 326 324 324 326 326 324 326 327 327 327 328 328 328 328 328 328 328 328 328 327 326 326 326 328 328 327 326 325 324 324 323 322 322 323 321 318 315 315 315 315 315 315 314 312 311 309 308 306 306 306 305 305 304 304 305 305 307 308 309 310 310 310
327 326 326 327 326 325 324 324 324 323 323 325 326 327 326 326 327 326 327 327 326 324 323 324 324 323 324 324 322 323 326 326 327 327 327 327 327 327 327 327 328 328 328 327 327 326 327 328 328 327 327 327 326 325 324 324 324 322 319 318 318 318 318 318 317 316 316 315 313 312 311 311 310 309 307 306 305 305 305 305 307 308 310 310 311
327 328 327 326 324 323 323 323 324 323 323 324 324 327 327 327 328 327 327 327 325 324 323 323 324 323 322 323 323 324 325 324 325 324 324 324 324 325 325 326 327 328 328 328 327 327 326 328 328 328 328 329 329 328 327 326 325 322 321 319 318 318 318 318 319 319 318 316 316 315 315 314 313 312 310 308 307 307 306 306 306 307 309 310 311
327 327 326 324 323 324 323 323 323 322 322 323 325 327 328 328 328 328 328 328 326 325 324 324 324 323 323 324 324 324 324 323 323 322 322 321 321 321 322 324 326 327 327 328 327 327 326 328 329 328 328 329 329 329 328 327 326 324 323 322 322 323 322 320 320 319 319 318 317 316 316 316 315 314 314 313 312 311 310 310 308 308 308 309 310
325 324 323 322 322 322 321 320 320 319 319 322 325 327 327 328 328 328 329 328 326 325 325 325 325 323 324 324 322 321 321 321 321 321 320 319 319 319 320 321 324 326 326 326 326 327 326 327 327 327 328 328 328 328 328 328 327 325 325 325 324 326 326 324 322 321 320 319 318 317 317 317 317 317 318 317 316 315 314 313 311 309 308 309 310
323 322 322 322 321 321 320 318 319 319 319 321 325 326 326 328 328 328 328 328 327 326 325 326 325 324 323 322 321 320 320 321 321 321 319 318 318 319 319 319 322 324 326 326 327 327 327 327 328 327 327 327 327 328 328 328 327 326 327 327 326 325 326 326 326 325 323 321 320 319 319 318 319 320 321 321 320 318 317 315 313 310 308 308 309
321 320 320 321 320 320 319 318 318 320 321 321 323 323 324 326 327 327 327 326 326 326 326 326 325 324 324 322 321 321 321 320 321 321 319 318 318 318 320 320 320 322 324 325 326 326 326 327 327 327 327 327 327 327 328 327 327 326 327 327 327 326 326 326 327 327 327 325 323 323 322 320 321 322 323 323 323 321 320 318 316 313 310 308 309
319 320 320 320 320 320 319 318 318 319 321 322 322 322 323 325 326 327 326 326 325 325 326 325 324 324 323 322 322 322 322 322 322 322 321 320 319 318 319 319 320 321 322 324 324 325 325 325 325 324 325 326 326 326 326 327 327 327 327 327 327 327 327 327 326 327 327 327 327 327 326 323 323 324 324 326 326 325 324 322 320 318 315 311 309
317 320 320 319 320 320 319 318 319 320 320 321 322 322 323 324 325 324 325 324 324 324 325 324 323 323 322 322 323 323 323 323 322 321 321 320 320 320 319 318 319 319 320 321 322 322 322 323 322 321 321 323 325 326 326 327 327 328 327 327 326 327 327 326 327 327 327 327 327 327 327 325 324 325 326 327 327 326 326 325 324 322 320 317 314
314 318 320 320 319 319 318 319 321 321 321 321 321 321 321 322 322 322 322 322 323 323 323 323 321 321 322 322 323 323 322 322 320 320 320 320 320 320 320 320 320 320 320 320 320 321 321 320 320 319 319 319 321 325 327 328 328 328 328 328 327 327 327 327 327 328 327 327 327 326 325 324 323 325 326 327 326 327 326 326 325 324 323 322 320
312 315 319 319 318 319 319 319 321 322 321 321 320 320 321 322 322 323 322 320 321 322 321 321 321 322 322 322 323 322 320 319 319 320 320 320 320 321 321 321 322 322 321 321 321 321 322 322 320 318 318 319 322 326 328 328 328 329 329 329 328 328 327 327 327 328 328 328 327 326 325 324 324 325 327 327 326 327 328 328 327 326 326 325 323
313 315 317 318 318 317 317 317 319 320 321 321 320 321 322 322 322 322 321 320 320 320 320 320 322 323 323 321 321 320 319 319 319 320 320 321 321 320 319 319 320 321 321 320 320 319 319 320 320 318 318 319 321 323 325 326 327 328 328 328 328 328 328 328 327 329 329 329 328 327 326 326 325 326 327 327 327 328 328 329 329 328 327 326 326
312 315 316 316 316 316 316 316 317 318 319 320 321 321 322 322 322 322 321 320 320 320 321 321 321 322 321 319 319 319 319 319 320 320 319 318 317 316 313 310 310 312 313 315 315 314 315 316 317 318 318 318 316 316 318 320 321 324 326 327 328 328 328 328 328 329 329 329 329 328 327 327 326 327 327 327 327 328 329 328 328 328 328 328 327
309 312 315 315 314 314 315 314 314 313 314 315 316 318 320 320 320 321 321 320 319 319 320 320 320 319 318 317 317 317 317 319 320 319 316 313 312 311 308 306 306 307 309 311 312 313 315 315 315 316 317 317 316 314 314 314 317 320 323 326 328 328 328 328 328 328 329 329 328 328 329 328 327 327 327 328 328 328 328 329 329 329 328 329 329
306 308 310 310 309 310 309 309 308 307 308 307 308 309 311 310 312 315 317 318 317 318 319 319 317 314 311 312 314 315 315 316 317 314 310 307 306 305 305 306 307 308 311 313 314 315 316 316 317 317 317 317 317 316 314 312 315 318 322 324 326 328 327 327 328 328 329 329 328 328 329 329 329 328 328 328 328 328 329 329 330 330 329 330 330
306 306 306 306 306 306 306 306 306 306 306 306 305 306 305 305 305 306 309 311 312 313 313 312 310 306 305 307 309 310 310 310 309 307 305 304 304 304 304 305 305 306 311 315 315 315 316 316 318 318 319 319 318 318 317 315 314 315 320 324 325 326 326 326 326 326 327 328 328 328 328 329 329 329 329 329 328 328 328 328 330 330 329 329 329
305 306 306 306 306 306 306 306 306 306 306 306 306 306 306 306 306 305 305 306 306 306 306 306 305 305 304 304 304 305 305 305 304 303 303 303 303 304 304 304 303 304 309 315 315 315 315 316 317 318 319 319 319 320 321 320 318 319 323 325 325 326 325 324 324 325 325 325 325 325 325 326 327 327 327 327 327 327 326 327 329 328 328 328 328
306 306 306 306 306 306 306 306 306 306 306 306 306 306 306 306 306 305 305 305 305 305 305 305 304 305 304 304 303 303 303 303 303 303 303 302 302 303 302 303 303 303 307 313 315 315 315 315 316 317 318 319 319 320 322 323 324 324 325 325 324 324 324 323 323 323 323 323 322 323 323 324 324 324 324 324 324 324 324 325 326 327 327 327 327
307 306 306 306 306 306 306 306 306 306 306 306 306 306 306 306 305 305 305 305 305 305 305 304 304 304 304 303 303 303 303 303 303 303 303 302 302 302 302 302 302 302 304 309 313 313 313 313 315 316 317 318 318 318 320 322 323 324 324 323 323 323 323 323 322 322 322 322 322 322 323 324 324 323 323 322 322 322 322 323 323 324 325 325 326
308 308 308 307 307 307 306 306 306 306 306 306 306 306 306 306 305 305 305 305 305 305 305 304 304 304 304 304 304 304 304 303 303 303 303 302 302 302 302 302 303 303 302 303 306 306 306 307 310 313 314 315 316 316 317 318 320 321 322 322 322 321 321 321 322 322 322 321 321 322 322 323 322 322 321 321 320 320 320 320 321 322 323 324 324
309 309 309 308 308 308 307 307 307 306 307 306 306 306 306 306 306 306 305 305 305 305 306 305 305 305 305 305 305 305 305 305 304 304 303 303 303 304 304 304 304 304 304 304 304 304 304 304 304 306 308 309 309 310 310 310 312 314 317 320 321 321 322 321 321 320 320 320 320 320 321 321 320 319 318 318 318 317 316 316 317 318 319 321 322
311 310 311 310 310 309 308 308 308 307 307 307 307 307 306 306 306 306 307 306 306 306 307 307 307 307 307 307 307 307 307 306 306 306 305 305 306 306 306 306 306 306 306 306 306 306 305 305 304 304 304 304 304 304 304 304 304 305 307 310 313 315 317 319 320 320 320 320 319 319 319 318 317 315 314 315 316 316 316 315 315 315 315 317 318
312 312 313 313 312 312 310 310 310 310 309 309 308 308 307 307 307 307 307 307 307 307 307 307 307 308 308 308 308 308 308 308 308 308 308 308 308 308 308 308 307 306 306 306 306 307 307 306 306 305 304 303 303 302 302 302 302 302 302 303 304 305 307 308 310 312 314 315 315 316 316 316 316 315 315 316 317 316 315 315 316 316 316 316 316
314 314 314 315 315 315 314 313 314 314 313 313 312 310 310 309 308 308 307 308 308 307 308 308 307 308 308 307 307 308 308 309 309 309 310 309 309 309 308 308 307 306 306 306 306 307 307 307 306 305 304 304 303 302 302 302 302 302 302 302 302 302 302 303 304 305 306 306 307 309 311 312 314 315 317 317 318 317 315 315 316 317 317 316 315
315 315 316 316 316 316 316 315 315 316 316 316 316 315 315 314 313 312 310 309 309 308 308 308 308 308 308 308 307 307 307 308 308 308 309 309 309 309 308 307 307 306 305 305 305 305 306 307 306 305 304 304 303 302 301 302 303 303 302 302 302 303 303 303 303 304 305 305 306 306 307 308 310 311 313 314 315 315 314 314 314 314 314 313 313
316 316 316 316 317 317 316 316 316 316 317 317 317 317 317 317 317 316 316 314 313 312 310 309 308 308 308 308 308 308 308 307 307 308 308 308 308 308 308 307 306 305 304 304 304 303 304 305 305 305 304 303 302 301 300 301 302 303 303 303 302 303 303 303 304 305 306 307 307 308 308 308 308 309 309 309 310 311 311 312 312 312 311 311 311
316 316 317 317 317 317 317 317 316 316 317 317 317 317 317 317 317 317 318 317 317 316 314 313 311 311 310 308 308 308 308 308 307 307 307 308 308 307 307 307 306 305 304 303 303 303 302 303 304 304 303 302 301 300 300 301 302 302 303 303 303 303 303 304 305 306 307 308 309 310 310 310 310 310 310 310 310 310 310 310 311 311 311 311 311
316 317 318 318 318 318 317 317 316 317 317 317 316 317 316 316 317 317 318 318 318 317 317 316 314 314 313 311 309 308 308 308 308 308 308 308 308 307 307 306 305 305 304 304 304 304 303 302 303 303 303 302 301 300 299 300 301 302 302 303 304 304 304 304 305 306 307 308 309 309 310 310 311 311 312 312 312 311 311 311 311 312 312 312 312
317 317 319 319 319 318 317 317 317 317 317 317 316 316 315 315 316 317 318 318 318 318 317 316 316 315 315 313 311 310 309 309 308 308 308 308 308 307 306 306 305 305 305 305 305 305 304 303 302 302 302 301 301 300 299 299 299 300 301 302 303 304 304 305 305 306 306 307 308 309 308 308 308 308 309 310 311 311 311 312 313 313 314 314 314
318 318 319 319 319 318 317 317 317 317 317 317 316 315 315 315 315 316 317 317 317 318 317 317 316 315 315 314 313 311 311 310 309 308 308 308 307 307 306 306 306 306 306 306 305 304 303 302 301 300 300 299 299 299 299 299 298 298 299 300 301 302 303 303 303 304 304 305 306 307 307 307 306 305 306 308 309 310 310 310 311 312 312 312 313
319 319 318 318 319 318 318 317 317 317 317 317 315 314 313 314 314 314 313 314 317 318 317 317 317 316 315 314 313 312 311 311 310 309 308 308 307 307 307 306 306 307 306 305 304 303 302 301 299 299 299 298 298 298 298 298 298 298 298 298 299 299 300 301 301 301 302 303 303 302 303 303 304 306 307 309 310 310 310 311 311 311 311 311 313
318 318 317 317 317 317 318 318 318 318 318 316 314 312 313 314 314 314 313 315 317 318 317 317 317 316 315 315 314 313 312 312 311 310 309 308 308 308 307 307 307 306 305 304 303 302 300 299 298 298 298 298 297 297 298 297 297 298 298 298 298 298 298 299 299 299 299 300 301 301 301 302 304 306 309 310 310 309 310 311 312 312 312 312 314
317 316 316 316 316 316 317 317 316 317 316 315 314 313 315 315 315 316 316 316 317 318 318 317 317 316 315 315 314 313 312 312 311 311 310 309 308 308 308 308 308 307 305 303 301 300 299 298 298 297 297 297 297 296 297 297 296 296 297 297 297 298 298 298 299 299 298 299 299 300 301 303 304 305 307 309 309 308 307 308 310 311 312 313 314
315 314 314 316 316 315 315 315 314 314 314 314 314 314 315 316 316 317 317 317 317 317 318 318 317 316 315 314 314 313 313 312 312 311 310 309 308 308 308 308 308 307 305 303 301 300 299 298 298 297 297 297 297 296 296 296 296 296 296 296 296 297 297 297 298 299 299 298 298 299 299 300 301 301 303 304 305 304 302 303 306 308 310 311 312
312 312 312 312 312 312 313 314 315 315 315 315 314 314 314 316 317 318 318 318 317 317 318 318 317 315 314 314 313 313 312 312 312 311 310 309 309 309 308 308 308 307 306 303 301 300 299 299 298 297 297 296 296 296 296 296 296 296 296 296 296 296 296 296 296 297 298 297 297 297 298 298 298 298 299 299 300 299 299 300 302 304 305 307 308
312 312 312 311 311 312 313 315 315 315 316 315 315 315 315 316 317 318 319 319 319 318 318 318 317 315 314 314 313 312 312 312 312 311 309 309 309 309 309 308 307 306 305 303 302 300 300 299 299 298 297 296 296 296 296 296 296 296 296 296 296 296 296 296 296 296 297 297 296 297 297 298 298 298 298 298 298 298 298 299 300 301 301 302 304
311 312 313 313 313 314 314 314 314 314 314 314 314 313 312 312 312 313 315 317 319 319 318 318 317 316 315 314 313 312 311 311 311 310 308 308 308 308 307 307 306 305 303 302 301 300 300 300 299 298 298 297 296 296 296 296 296 296 296 296 296 296 296 296 296 296 296 296 296 296 297 297 297 297 298 298 298 298 298 298 299 299 299 299 300
312 313 314 314 314 314 313 313 313 313 312 310 309 307 306 306 306 308 312 315 317 318 318 317 316 315 314 313 312 311 311 310 310 308 307 306 306 306 305 305 304 303 302 301 301 300 300 300 299 299 298 297 297 296 296 296 296 296 296 296 296 296 296 296 296 296 296 296 295 295 296 297 297 297 297 297 298 298 298 298 298 298 299 300 300
311 312 312 311 311 311 311 311 311 311 310 308 306 304 303 302 302 305 309 313 316 317 317 316 315 314 313 312 311 311 310 309 308 306 305 305 305 305 304 303 303 302 301 301 301 300 300 300 299 299 298 298 297 296 296 296 296 296 296 296 296 296 295 295 295 296 296 296 295 295 295 295 296 296 297 297 297 298 298 298 298 298 299 300 301
304 305 306 306 306 306 307 308 309 310 310 308 306 304 303 301 302 303 305 308 311 314 315 315 314 313 312 311 310 310 308 307 305 305 305 305 305 304 303 302 302 301 301 301 300 300 300 300 299 299 298 297 297 297 296 296 296 296 296 296 295 295 295 294 294 295 296 296 296 295 294 294 295 295 296 296 297 298 298 298 298 299 300 301 301
303 304 304 305 306 306 306 307 308 309 310 309 307 306 305 304 303 304 305 308 310 312 313 313 312 311 309 309 309 309 307 306 305 305 305 305 304 303 302 302 301 301 301 301 300 300 300 299 299 298 298 297 297 296 296 296 296 295 295 295 294 294 294 293 293 293 294 295 295 295 294 294 294 295 295 295 296 297 298 299 299 299 300 301 301
302 304 305 306 307 308 308 309 309 309 309 309 309 309 308 307 306 306 307 310 312 312 312 311 310 309 309 309 309 308 307 306 306 306 305 304 303 303 302 302 301 301 301 301 300 300 299 298 298 297 296 296 296 295 295 295 294 294 294 294 294 293 293 293 292 293 293 294 294 294 294 294 294 294 294 295 295 296 297 298 299 298 299 300 300
Wind_Speed
10 10 9 9 9 8 8 10 10 10 11 10 11 12 11 13 16 18 17 14 12 12 12 12 11 8 8 8 7 6 5 5 7 7 5 4 2 2 4 6 6 5 5 4 4 3 3 4 4 5 5 5 6 6 6 6 6 5 6 5 5 5 6 5 4 3 3 2 1 1 2 3 4 6 7 8 8 9 9 9 10 10 11 11 12
12 11 9 9 8 9 10 10 10 11 12 11 11 11 11 13 15 16 16 15 12 11 11 11 11 10 10 10 7 6 5 4 4 6 6 5 3 3 4 5 4 4 4 3 3 3 2 2 3 3 4 5 6 7 7 8 8 7 7 6 5 5 5 5 5 5 4 3 2 1 0 1 3 4 5 6 7 7 8 8 9 9 9 9 10
13 12 9 9 9 9 12 12 11 11 11 11 12 11 11 12 13 14 14 14 12 12 13 14 15 14 13 12 9 7 6 5 4 6 5 5 4 3 3 4 4 3 3 2 2 2 1 1 0 1 2 3 4 6 6 8 9 9 8 7 6 5 5 6 6 5 5 4 3 2 1 1 1 2 3 4 5 6 6 7 7 7 7 8 8
14 13 10 9 11 11 12 13 12 12 11 11 13 12 11 11 12 13 13 13 13 14 15 16 18 18 16 15 12 9 7 6 5 5 6 5 4 3 3 3 2 2 2 2 3 3 2 1 1 1 2 2 2 3 4 5 7 8 7 7 7 6 6 6 6 6 6 5 4 3 3 2 2 2 3 3 4 4 5 5 6 6 6 6 7
14 13 11 11 13 12 10 12 12 12 13 13 14 13 12 12 12 12 13 14 15 16 16 17 19 19 18 17 14 12 9 8 7 6 6 6 5 4 3 3 1 1 1 2 3 4 3 2 1 1 1 2 2 2 2 3 4 6 6 6 5 5 6 6 6 6 6 6 5 4 4 4 3 3 3 3 3 3 3 4 4 5 5 5 6
13 12 12 11 12 11 9 10 10 11 13 13 14 14 13 13 12 12 12 13 15 15 14 16 17 17 18 18 16 14 11 9 9 8 6 6 6 5 5 4 3 2 0 1 2 3 3 3 2 2 1 1 1 1 2 2 2 4 4 4 4 3 4 5 6 6 7 7 6 5 5 5 5 4 4 3 3 3 3 3 3 4 4 5 5
12 12 12 11 11 11 11 10 8 9 11 12 14 14 13 13 12 12 13 13 13 13 12 13 14 15 16 16 17 15 12 11 10 8 7 7 7 7 6 5 5 4 3 3 3 3 3 3 3 2 1 1 1 2 2 2 2 3 3 3 3 3 2 3 4 5 7 7 7 7 7 6 6 6 5 4 4 3 3 2 2 3 3 4 4
14 14 13 11 11 12 13 12 10 8 9 11 13 13 13 13 12 13 14 14 13 13 13 12 13 14 13 14 16 15 14 13 11 10 9 9 9 9 9 8 8 8 6 5 5 5 5 4 4 4 2 1 1 1 2 3 3 3 3 3 3 3 2 2 3 4 6 7 8 8 8 8 7 7 6 6 5 4 4 3 2 2 2 3 3
15 16 15 13 13 13 13 12 11 10 10 11 13 13 13 13 13 13 14 15 14 14 14 13 12 13 12 13 13 13 14 14 13 13 12 12 11 11 10 10 11 11 11 10 8 7 6 6 6 6 6 4 2 1 1 2 4 4 4 3 3 3 3 2 2 2 4 5 6 7 7 8 8 8 8 7 6 5 5 4 3 2 1 1 2
14 14 13 13 13 13 13 11 11 12 11 12 13 14 14 13 13 14 15 16 14 14 15 14 13 13 13 13 12 11 11 12 13 14 13 13 13 13 12 11 12 13 13 13 12 10 8 8 7 8 8 6 3 3 2 3 3 3 3 3 3 3 3 2 2 2 2 3 4 4 5 6 7 8 9 8 7 7 6 5 4 3 2 1 1
10 10 9 11 12 12 11 9 10 11 11 12 12 13 13 13 13 14 15 16 15 13 14 14 13 12 12 11 10 10 10 10 11 12 12 12 12 13 14 13 14 15 15 15 14 13 11 10 9 9 9 8 6 5 4 5 5 4 3 4 4 4 3 3 3 3 3 4 4 4 5 6 7 8 8 7 7 7 6 5 4 3 3 2 1
9 8 8 10 11 11 9 8 9 9 10 11 12 11 12 12 13 14 14 15 15 14 13 13 12 9 7 6 7 8 9 8 9 9 10 10 11 12 13 13 14 16 16 16 15 15 13 12 11 10 10 10 9 8 7 6 6 5 4 4 5 5 4 4 4 4 4 5 6 5 5 6 6 6 5 5 5 5 5 5 4 4 4 3 3
8 8 7 8 9 8 8 8 9 9 9 10 11 11 11 12 14 15 15 15 15 15 13 12 11 8 5 5 6 7 8 8 7 7 7 8 9 12 14 14 14 15 16 16 15 15 15 14 13 12 12 12 11 10 9 8 8 8 6 5 5 6 5 4 4 5 6 6 6 5 5 5 5 3 2 2 2 3 3 3 3 4 4 4 4
10 8 7 6 6 7 7 8 9 9 9 10 11 11 11 12 14 15 16 16 15 14 13 12 10 8 7 7 7 7 8 8 8 6 5 5 7 10 14 16 15 14 13 14 14 15 15 15 14 14 14 14 13 12 11 10 10 9 8 7 6 7 7 5 4 4 5 6 6 5 4 4 3 2 1 1 1 2 2 2 2 3 4 4 5
10 9 9 8 7 6 6 7 8 8 7 9 10 10 11 12 13 15 16 16 15 14 13 12 10 9 9 9 8 7 7 6 6 5 4 4 5 7 10 14 15 14 12 11 12 14 15 15 15 15 15 14 14 14 14 12 11 11 11 10 9 8 8 8 8 7 6 6 6 5 4 4 4 3 2 2 2 2 2 2 2 2 3 4 5
9 9 11 10 9 7 6 6 7 5 5 7 8 9 10 11 12 14 15 14 13 13 13 12 10 9 8 8 8 8 7 6 5 5 4 5 5 5 6 9 12 13 13 12 11 12 13 14 14 14 15 15 14 15 15 14 13 13 13 13 12 11 10 9 10 10 9 8 8 7 5 5 6 6 4 4 4 4 3 3 3 3 3 4 5
9 9 9 9 9 8 6 6 7 7 7 7 8 7 8 10 11 12 13 13 13 14 15 12 10 10 9 7 6 6 6 7 7 5 5 5 5 6 5 5 7 10 12 13 14 14 14 14 12 10 12 14 15 16 16 16 16 15 15 15 14 14 12 11 11 11 11 11 11 10 10 8 8 8 7 7 7 6 6 5 5 5 5 5 6
9 8 7 7 8 7 6 6 7 8 8 8 8 8 7 8 8 9 10 11 12 13 14 12 10 10 10 8 6 4 5 7 7 6 6 6 6 6 5 4 4 5 7 9 11 13 13 14 13 11 12 14 14 16 16 17 17 17 17 16 15 15 14 13 12 12 12 13 13 13 13 12 11 10 10 9 9 9 8 8 7 7 7 7 7
10 10 8 6 5 6 5 5 6 8 9 9 9 8 7 7 7 8 8 7 8 10 10 9 9 9 9 9 8 7 7 8 8 8 8 9 8 7 6 5 4 4 4 5 6 8 10 12 13 13 15 16 15 15 16 16 16 16 16 17 17 17 17 16 15 14 14 14 15 15 14 14 13 12 11 10 11 11 11 10 10 9 9 9 9
9 10 10 8 6 5 4 4 5 7 8 8 7 6 7 8 7 6 5 5 7 8 8 8 8 8 7 7 7 7 8 8 8 7 7 9 8 6 6 6 5 4 5 5 6 7 8 9 10 11 13 14 14 15 14 14 14 15 15 15 16 18 19 19 17 17 16 16 17 17 17 16 15 15 14 13 14 15 15 14 13 12 12 11 11
9 9 10 9 8 6 6 5 5 6 7 6 5 5 6 7 6 5 3 4 6 7 7 8 7 6 5 6 5 5 5 5 5 4 4 4 4 4 5 6 7 6 6 7 7 7 8 7 8 9 10 10 10 13 14 11 11 13 12 11 13 15 17 18 18 18 19 19 18 18 18 18 19 20 19 19 19 18 17 17 16 15 14 14 14
10 11 11 10 9 8 7 6 5 5 6 6 5 6 6 6 6 5 4 3 4 4 4 5 5 4 4 4 4 3 3 3 3 2 2 3 5 7 9 10 8 6 6 8 7 5 5 5 5 5 7 7 6 9 11 9 8 10 11 10 10 11 12 13 15 17 19 21 21 20 19 19 22 23 22 22 23 22 21 20 18 17 16 17 17
10 11 10 9 8 7 5 5 5 5 5 5 5 6 5 4 4 4 4 3 3 3 3 4 4 3 3 3 3 3 3 3 3 3 6 8 10 11 11 11 9 7 6 5 3 2 1 1 2 2 4 7 7 7 8 8 8 9 11 12 11 10 10 10 10 12 16 20 21 19 20 21 23 24 23 23 24 24 25 24 22 20 18 18 18
11 10 10 8 7 6 5 5 6 6 5 5 4 4 4 4 5 5 5 4 3 3 3 3 3 2 3 4 4 4 4 5 6 8 10 11 11 11 11 9 7 7 6 5 5 3 3 3 3 1 1 4 6 7 8 10 10 8 10 12 11 8 7 6 6 9 12 15 16 14 17 20 22 24 25 24 23 24 26 25 23 21 20 19 19
12 11 10 9 8 8 8 8 8 9 9 9 9 9 8 8 7 6 6 6 5 5 4 4 3 2 2 3 4 5 6 7 7 8 8 8 7 8 8 8 8 7 4 5 5 4 4 6 6 4 2 1 2 4 7 10 11 9 9 10 9 6 4 4 5 7 9 11 12 12 14 16 18 21 21 20 20 22 25 24 24 23 22 21 20
14 13 11 11 10 9 9 9 8 8 8 8 9 10 9 8 8 8 7 6 5 4 3 3 2 2 2 2 2 3 4 4 5 5 5 5 5 6 6 6 6 5 3 2 2 2 2 5 6 4 3 2 2 1 3 5 8 10 10 8 7 6 5 5 5 6 6 8 9 10 11 13 15 17 18 17 18 19 20 20 21 21 21 22 23
15 14 13 12 11 10 9 9 9 8 8 8 8 8 8 7 6 6 5 5 5 4 3 3 3 2 1 1 0 1 1 2 2 3 3 4 5 5 6 6 4 3 2 2 1 1 1 2 1 1 2 2 3 1 1 3 5 7 7 7 7 7 7 8 8 8 8 9 10 10 10 12 13 14 15 16 16 16 17 17 17 18 19 21 23
16 14 14 12 12 11 10 9 9 9 9 9 8 7 6 5 5 5 5 5 5 4 4 5 4 3 3 2 2 1 1 1 1 2 3 4 6 6 8 8 7 6 4 1 2 3 3 4 4 3 3 2 1 1 1 3 4 6 6 7 7 8 10 10 10 10 10 11 12 12 11 11 12 13 14 14 14 15 16 17 18 18 19 21 21
15 14 14 13 12 11 11 10 9 9 9 9 8 7 6 5 5 6 6 6 6 6 6 6 5 5 5 4 3 3 3 3 3 4 4 5 6 7 8 9 9 9 7 5 3 3 5 6 7 7 7 7 6 6 5 6 7 8 9 9 10 11 12 12 12 11 11 12 13 14 13 12 12 14 14 15 15 16 16 17 18 20 21 22 23
15 14 13 12 12 11 10 9 9 8 8 8 7 6 5 5 5 5 5 5 5 6 6 6 6 6 5 4 4 4 4 5 5 5 5 4 5 7 8 9 10 10 9 10 9 7 7 7 8 9 11 11 11 12 12 12 12 12 13 13 14 15 15 15 15 15 14 14 14 15 16 16 16 17 18 17 17 16 16 16 18 19 21 22 23
15 14 12 11 10 9 9 9 8 8 7 6 6 6 5 4 4 5 5 5 4 4 4 4 4 4 4 3 3 3 4 4 4 5 5 4 5 6 6 7 9 10 11 12 12 10 10 10 9 9 11 12 13 14 14 14 14 14 15 16 17 18 19 19 19 19 19 18 18 18 18 19 19 20 21 20 18 17 16 15 15 16 18 20 21
14 13 12 10 9 8 8 7 7 6 6 5 4 4 4 3 3 3 2 3 3 2 2 1 1 1 1 1 0 1 2 2 3 4 4 5 5 5 6 7 8 10 11 14 15 14 12 13 13 11 12 12 12 13 14 13 12 12 13 13 15 16 17 18 18 19 20 21 21 21 21 20 20 20 20 20 18 17 17 16 16 16 16 18 19
13 13 12 10 10 9 8 7 6 6 6 5 4 3 2 2 1 0 1 1 1 1 2 2 2 2 2 2 3 3 2 1 1 2 3 4 5 5 6 7 8 10 12 14 17 18 15 15 16 15 14 14 13 13 14 13 12 12 11 10 11 11 12 12 12 13 14 15 17 19 19 20 20 20 21 21 21 20 19 19 18 18 18 18 18
14 13 12 11 10 9 8 7 7 7 7 6 5 3 2 2 2 3 4 4 4 4 5 4 4 4 5 5 5 6 5 4 3 3 4 4 4 5 6 7 8 10 13 15 17 20 20 18 18 17 17 17 16 15 15 15 13 12 12 11 10 9 8 8 8 8 8 9 10 12 14 15 17 19 20 21 22 22 22 21 20 20 20 19 18
15 14 12 12 11 10 9 8 8 7 6 4 3 1 1 2 3 5 6 7 7 7 8 7 7 7 8 8 8 8 7 6 6 5 5 6 6 7 7 8 9 10 13 15 17 20 22 22 21 20 20 19 18 17 16 16 14 13 13 11 10 9 9 9 8 7 6 7 8 9 10 11 13 14 16 18 19 20 21 21 21 21 20 20 20
18 17 15 14 13 12 11 10 10 8 6 4 3 3 3 4 6 7 8 9 9 9 10 10 10 10 11 11 11 11 9 8 7 7 7 7 7 7 8 8 9 11 13 15 17 18 21 23 22 22 21 20 19 18 17 17 16 15 13 12 11 10 10 9 9 9 8 9 10 10 10 10 12 13 14 15 17 18 19 20 20 20 20 20 19
21 20 19 18 17 15 13 12 10 8 6 5 6 7 8 9 9 10 11 12 12 12 12 12 12 12 12 13 13 14 12 10 9 9 8 8 8 7 8 9 10 12 14 15 17 17 19 22 23 22 21 20 19 17 18 19 18 17 15 13 13 13 13 11 10 10 11 11 11 12 11 12 13 14 15 16 16 17 18 18 18 18 18 17 16
22 22 21 20 18 16 13 12 11 10 9 8 10 13 14 14 14 13 13 15 16 17 16 15 15 15 14 14 14 15 15 13 12 11 10 9 9 8 9 10 12 13 15 16 17 18 19 20 22 22 21 21 20 18 17 19 20 21 20 18 15 15 16 15 13 12 13 13 13 14 15 16 17 18 18 17 18 18 19 19 18 18 18 17 17
27 26 23 21 18 15 13 13 13 13 12 12 14 17 17 17 16 16 15 17 19 21 20 19 18 18 17 16 17 17 16 15 14 13 11 10 10 10 10 11 12 14 16 17 17 18 19 20 20 21 21 21 21 20 19 19 20 21 22 23 21 19 19 19 18 18 17 16 16 17 19 21 22 21 19 17 17 18 18 19 20 20 21 21 21
25 24 20 17 16 15 14 14 15 15 14 15 18 20 19 17 17 17 18 19 21 24 25 23 21 21 20 19 19 19 17 17 16 15 13 12 11 11 12 12 13 15 16 17 18 18 19 19 19 19 20 20 21 21 20 20 20 20 21 23 25 25 23 23 22 23 23 22 21 21 21 21 21 19 17 16 14 14 15 16 18 19 21 22 22
20 18 16 16 15 15 16 17 18 18 19 20 20 19 17 17 18 19 21 23 23 24 26 27 26 24 23 23 22 21 20 18 18 17 15 14 13 13 13 13 15 16 17 18 18 17 17 17 18 19 20 20 21 21 22 22 22 22 22 23 25 27 27 27 25 26 27 27 27 26 23 22 21 19 17 17 16 15 15 14 15 16 18 19 20
19 17 18 19 17 17 18 19 20 21 22 21 20 18 17 18 19 20 23 25 26 26 26 28 30 28 27 26 25 23 22 21 20 20 18 16 16 15 14 15 16 18 18 18 17 17 17 18 19 20 21 21 21 22 23 23 22 23 23 24 26 26 28 29 27 25 25 25 28 28 25 22 23 22 21 20 19 19 20 19 18 17 17 17 18
18 17 18 17 16 16 17 17 17 18 18 17 17 17 17 17 18 19 22 24 26 27 27 28 31 31 29 28 27 26 25 24 22 21 20 18 16 16 16 17 18 19 19 18 18 19 20 21 21 22 24 24 24 24 25 25 25 24 24 24 26 27 28 30 29 27 25 25 28 30 28 25 26 27 27 25 25 26 27 26 24 22 20 18 17
15 15 15 15 15 15 16 15 15 15 15 16 17 18 18 18 18 20 21 22 24 26 27 28 30 31 30 30 29 29 28 25 23 22 20 18 16 17 18 19 21 22 21 20 20 20 22 23 25 25 26 27 27 27 27 28 28 28 27 27 27 28 29 30 31 30 28 27 30 33 32 29 28 30 30 29 29 29 30 30 28 27 25 23 21
12 13 13 13 14 14 14 14 14 15 16 17 18 18 19 20 20 20 21 21 23 24 25 27 30 31 30 31 31 31 29 26 23 23 21 18 17 19 20 21 22 23 23 22 21 22 23 25 27 28 28 29 30 30 29 30 30 31 31 31 31 32 33 33 34 33 31 30 31 34 34 30 28 30 30 28 28 28 28 30 30 29 28 27 26
11 11 11 12 13 13 13 13 14 16 17 18 18 19 21 22 23 22 21 21 22 22 22 25 29 31 31 31 31 31 29 26 24 22 20 18 18 20 21 23 23 23 22 21 21 23 24 26 28 30 30 31 32 33 32 31 31 32 33 34 35 36 37 37 37 38 36 34 33 35 36 33 30 30 30 27 26 26 26 28 29 30 29 28 26
12 11 11 12 12 13 13 13 14 15 16 17 17 18 20 21 21 21 20 19 19 19 20 24 28 29 28 28 29 29 26 23 22 21 19 18 20 21 22 23 23 22 21 21 22 24 26 28 30 31 32 33 34 34 34 34 33 33 34 36 37 38 39 40 40 40 38 37 35 35 37 36 32 32 32 28 27 27 25 25 27 27 27 27 25
14 13 13 13 13 14 14 14 15 15 15 15 15 16 17 18 18 17 16 15 14 15 17 22 25 26 25 26 28 28 24 22 21 20 19 20 21 23 23 23 23 21 20 21 24 26 28 30 31 33 34 35 35 36 36 36 36 36 37 38 39 40 41 43 44 42 39 38 37 36 38 39 36 34 32 27 26 25 23 22 23 24 24 24 24
10 10 10 10 10 11 12 13 14 14 15 15 15 14 14 15 15 15 14 13 12 12 15 19 23 25 26 27 27 24 21 20 20 20 21 22 23 24 24 23 23 21 21 23 25 27 29 31 32 33 34 35 36 37 37 38 39 40 41 43 43 43 44 45 46 45 42 40 39 38 39 38 35 31 29 26 23 21 19 19 20 19 19 20 22
8 9 9 8 9 10 11 12 13 14 15 16 15 14 13 13 13 13 13 12 12 12 14 17 20 23 24 24 23 21 21 21 22 23 24 23 23 23 24 23 23 22 23 25 27 28 30 32 33 33 34 35 37 39 39 40 40 39 40 41 41 40 41 42 42 42 42 40 36 33 32 31 29 29 29 28 26 21 16 15 15 15 15 16 18
8 9 10 10 11 11 13 14 15 16 17 17 17 15 15 14 13 13 12 11 11 13 15 17 20 22 22 22 22 23 23 24 24 24 24 23 23 23 23 24 24 25 26 28 30 31 32 34 35 36 37 37 37 37 36 36 34 32 31 32 32 32 33 34 34 34 36 35 30 25 26 28 28 27 26 26 27 24 16 11 13 15 16 16 15
Wind_Direction
210 209 206 206 209 210 193 187 188 178 176 179 173 165 162 163 163 162 161 161 158 152 151 156 154 143 153 168 171 173 186 202 188 177 172 169 154 97 73 65 67 70 69 69 81 102 144 187 208 221 230 230 228 227 229 243 252 254 255 250 243 235 227 220 215 210 202 184 153 114 83 69 65 64 65 64 64 63 63 61 59 56 51 46 46
210 212 216 219 217 218 210 196 189 185 184 187 184 175 168 168 171 170 169 170 162 156 165 171 166 161 168 173 172 176 178 174 186 191 176 164 157 113 84 79 78 75 71 67 69 73 87 144 192 213 223 228 233 235 232 240 252 258 261 264 267 265 252 243 236 227 226 225 224 217 78 55 55 54 55 57 57 58 60 60 59 57 55 49 45
209 213 219 223 217 217 217 206 191 188 189 191 193 187 176 171 172 169 168 172 169 171 185 188 184 180 175 174 176 185 189 175 175 188 177 158 159 139 100 95 92 83 71 57 51 47 44 59 139 214 218 219 222 230 235 236 245 254 260 262 264 271 270 266 260 251 244 242 248 259 274 324 8 28 38 43 44 48 52 54 57 58 57 55 50
206 210 215 219 215 210 208 201 189 189 191 192 195 192 182 176 172 168 164 169 180 189 197 198 197 193 184 184 188 193 201 209 207 197 186 172 164 153 134 121 102 89 69 59 51 37 19 358 320 248 229 227 215 219 232 234 241 249 254 257 256 259 264 270 275 274 268 262 261 268 277 291 314 337 1 15 23 31 38 42 47 52 56 57 54
209 209 210 215 213 206 194 185 182 188 191 191 195 194 190 187 183 181 175 173 183 193 199 200 202 204 197 195 197 198 204 218 231 226 211 197 176 161 171 184 157 129 98 69 43 29 20 7 335 285 251 236 229 226 232 232 240 247 250 253 251 250 251 255 262 270 275 276 275 276 280 283 293 301 318 335 350 0 12 26 34 40 47 55 55
214 212 208 209 210 208 192 180 184 193 194 192 196 198 199 199 196 197 194 189 190 195 201 201 204 207 204 204 203 200 204 216 231 239 233 217 196 182 188 201 195 186 194 349 345 353 353 349 344 334 320 286 265 261 254 241 242 246 248 249 250 245 240 240 246 255 262 267 271 272 275 275 280 286 293 303 310 323 336 356 13 25 34 44 53
217 215 206 204 208 214 210 203 204 204 201 199 201 204 207 209 206 206 206 202 204 206 209 210 209 205 203 207 205 201 205 212 221 234 241 237 228 217 207 202 202 212 246 283 300 315 317 311 309 314 350 346 333 306 283 272 260 252 247 246 250 243 228 221 225 237 246 252 257 262 268 271 276 279 281 284 286 293 302 319 343 3 17 30 42
217 210 199 199 209 219 219 216 217 217 212 209 212 214 216 215 209 210 212 210 213 217 219 223 219 210 205 206 205 208 213 213 215 222 228 235 240 237 231 225 219 220 232 251 264 279 288 289 293 285 269 291 326 320 297 284 273 265 263 252 249 244 226 207 197 209 227 238 245 251 259 265 269 274 275 276 275 276 279 284 297 329 357 13 28
203 196 186 191 212 223 222 220 223 229 226 215 218 223 227 225 217 213 215 217 221 224 227 226 220 217 209 202 205 211 214 216 219 223 226 229 235 235 235 235 231 229 231 237 239 247 261 267 280 283 274 271 263 249 272 286 273 265 267 259 250 243 228 218 197 192 208 225 238 248 258 263 265 267 269 271 270 269 270 269 272 277 306 348 16
187 184 178 187 210 220 220 222 227 233 231 220 221 227 231 232 227 221 218 220 226 233 234 227 221 225 223 218 220 217 213 216 219 223 227 231 236 237 237 238 237 237 238 239 234 230 235 246 264 275 268 260 249 246 249 253 250 248 255 255 246 239 235 234 230 234 233 232 241 250 260 262 263 265 267 269 270 271 270 267 266 261 261 272 344
182 181 182 195 212 219 220 223 224 225 225 224 226 229 232 232 230 229 224 225 232 237 233 226 225 227 224 223 222 217 218 222 224 226 229 233 238 240 242 245 244 243 242 241 237 231 225 227 246 261 260 257 253 252 253 238 223 227 242 249 243 232 227 231 235 249 254 256 255 251 256 261 263 266 269 271 272 272 271 270 267 259 251 242 238
178 181 194 210 219 223 225 226 226 221 219 225 230 231 235 236 231 229 230 234 234 225 217 217 218 215 213 218 218 221 231 239 241 240 241 243 244 243 245 246 246 245 243 240 239 239 232 223 230 243 247 251 252 251 252 240 227 230 244 254 252 239 230 228 230 240 252 259 257 252 253 259 265 270 271 270 271 272 273 274 270 258 248 235 224
166 177 195 209 209 209 210 214 221 221 216 218 222 226 233 236 232 230 235 239 232 218 210 211 210 206 217 243 248 251 259 261 264 265 262 259 256 251 246 241 241 243 243 240 237 239 236 229 229 237 240 244 248 248 248 243 232 227 233 250 254 247 244 237 229 236 246 254 257 257 259 262 265 268 266 262 263 269 271 272 271 258 247 235 225
159 163 168 175 179 184 188 196 206 211 211 207 209 218 227 232 232 234 236 235 231 223 216 213 212 214 232 259 268 269 268 270 281 280 266 269 270 260 248 239 236 237 242 242 238 236 236 237 238 240 243 246 247 246 245 242 234 228 232 243 247 244 247 251 248 245 252 256 254 250 245 242 241 220 197 214 235 251 256 265 271 262 250 240 229
173 179 183 180 174 175 180 188 197 203 205 205 207 214 221 229 234 236 235 229 224 222 216 213 216 226 251 270 273 275 273 273 286 281 269 295 300 278 256 243 237 236 239 244 245 241 235 235 241 245 248 252 254 251 246 243 235 231 236 242 245 245 245 251 256 256 260 259 248 241 227 209 203 198 202 223 240 252 252 254 264 266 255 247 237
184 189 196 194 185 177 175 179 185 187 187 196 205 213 219 224 228 232 232 228 226 223 217 217 224 235 258 269 268 275 281 281 285 278 276 303 322 317 286 253 241 240 242 245 251 253 247 242 245 250 252 253 256 256 253 251 244 238 240 242 243 245 244 246 252 253 254 251 244 246 243 218 202 207 225 244 258 266 267 267 266 266 257 250 245
178 173 178 183 178 170 169 172 175 173 170 180 190 197 208 213 216 223 228 231 233 227 223 226 233 236 241 250 262 277 287 294 297 291 280 292 316 327 321 284 255 250 250 250 253 260 266 261 253 258 264 258 255 254 254 255 253 250 249 247 244 245 244 243 245 249 251 249 245 246 251 248 232 227 234 246 258 265 268 273 271 268 263 255 250
182 178 169 166 165 159 160 169 175 172 166 169 172 171 181 191 198 208 215 223 226 224 225 229 233 232 232 236 248 271 290 299 304 306 295 291 302 314 326 323 286 267 263 260 258 260 267 267 261 268 279 276 268 262 260 258 258 258 256 255 254 254 251 248 246 248 249 249 245 242 248 255 252 245 243 248 258 265 268 269 270 270 268 262 257
189 193 186 174 164 154 152 156 164 168 164 165 164 161 168 175 182 190 196 207 217 222 227 231 234 236 236 234 242 264 282 289 294 298 296 292 296 297 298 307 311 301 287 278 274 268 268 272 272 270 271 274 276 270 265 263 261 260 260 259 259 259 259 257 254 252 251 250 249 246 245 250 252 248 245 251 261 268 272 270 268 268 268 267 262
176 184 185 184 179 168 166 153 148 160 165 167 166 163 171 174 174 178 184 195 209 221 227 229 232 235 237 239 246 264 275 275 276 280 286 293 298 289 269 270 281 293 293 282 280 284 285 282 284 279 264 261 266 264 258 258 261 261 260 260 259 259 260 261 260 257 252 248 248 247 245 246 248 247 246 256 264 267 271 270 267 267 267 266 263
161 161 163 170 177 181 181 167 145 148 159 166 163 159 164 166 159 155 167 186 197 210 218 218 220 222 225 229 236 250 257 257 255 253 266 291 307 306 285 274 269 268 275 276 278 295 305 301 301 293 265 248 258 263 252 247 260 265 259 256 257 256 254 254 257 255 250 247 243 244 246 248 252 255 255 261 265 265 267 265 264 265 265 264 262
153 157 155 160 168 172 173 174 174 167 168 169 161 155 152 151 147 140 144 148 154 175 195 198 197 192 192 203 216 230 239 240 227 227 273 310 310 312 314 310 304 293 287 288 293 315 328 320 320 302 264 245 261 275 262 250 258 264 258 250 247 249 249 249 253 253 248 244 240 237 239 245 251 256 260 265 267 268 267 265 263 264 263 262 259
138 152 160 165 166 164 167 174 183 192 196 194 190 191 189 185 179 169 167 150 131 137 151 156 154 160 189 216 236 245 253 253 242 269 303 309 303 304 313 320 327 338 345 344 345 359 5 330 326 292 248 246 255 265 266 266 261 256 256 250 239 233 236 242 252 257 251 248 248 243 239 243 247 250 253 258 263 267 269 269 268 268 268 265 261
133 140 149 151 141 131 130 128 128 132 136 134 138 155 161 163 171 179 191 193 175 172 177 177 190 242 264 261 256 254 263 265 270 288 303 310 307 307 316 326 339 358 21 59 78 69 67 56 29 35 192 233 250 248 248 259 264 265 268 262 256 248 241 253 271 271 267 267 271 264 252 252 254 253 252 253 259 265 268 270 270 271 271 267 263
131 133 135 134 128 123 120 115 115 115 113 111 107 105 106 106 113 126 147 164 170 177 190 203 216 242 259 249 250 255 261 266 275 289 302 313 314 311 316 322 335 359 40 96 92 73 70 64 55 54 84 155 240 244 241 249 252 264 278 274 277 293 299 301 294 281 276 277 280 275 265 263 264 264 261 257 260 265 266 266 263 264 266 265 265
126 129 129 129 129 126 121 117 116 113 109 110 108 103 99 97 98 102 113 125 131 141 157 164 153 130 142 194 237 253 262 270 279 291 303 312 314 315 322 324 333 2 45 102 102 97 89 68 64 63 71 95 96 230 240 244 241 250 267 271 276 289 288 277 265 259 262 265 270 273 272 269 268 270 272 269 268 271 273 270 266 267 269 270 271
122 124 126 127 127 124 121 118 114 110 107 109 109 106 102 98 97 96 99 105 107 112 118 113 108 112 131 151 160 234 271 293 298 314 328 335 338 341 350 357 4 27 65 145 199 283 341 27 53 55 54 88 92 106 220 245 245 246 256 266 271 272 267 262 258 259 261 263 266 269 273 275 275 277 280 281 281 282 285 285 283 281 278 277 276
122 123 124 124 123 121 120 117 111 108 109 111 110 104 99 96 91 87 88 94 95 95 97 98 101 103 100 101 109 124 108 38 10 7 5 0 359 358 1 7 10 18 38 134 223 281 306 302 281 279 306 323 8 20 291 259 255 254 253 256 260 256 253 256 259 266 271 274 275 274 273 279 284 286 288 290 289 287 288 288 286 284 281 281 282
124 124 125 124 125 122 121 119 112 106 106 108 109 104 97 90 85 82 81 82 81 83 85 85 92 95 87 84 89 91 80 55 29 21 17 11 9 6 8 11 11 10 11 4 338 317 320 314 297 281 279 287 288 280 281 273 261 258 256 254 256 255 255 258 263 268 269 272 276 276 275 276 278 282 285 289 290 289 288 286 284 281 279 278 278
132 129 126 124 126 126 124 121 115 108 103 103 107 107 101 91 85 82 82 84 82 81 79 73 78 87 84 81 80 76 68 49 27 17 16 18 22 21 20 18 16 12 3 354 348 345 341 332 318 303 291 290 289 281 278 279 273 265 261 259 260 261 261 263 267 270 270 271 273 275 276 276 276 279 281 283 284 285 286 286 285 283 279 276 274
143 137 133 125 124 128 127 124 121 120 117 112 110 110 109 102 93 88 89 96 95 85 82 76 72 78 80 80 79 76 72 54 32 18 13 10 14 23 25 15 7 2 355 346 340 341 344 338 336 329 314 307 306 298 289 286 282 275 269 265 264 263 264 264 266 268 270 272 273 274 276 277 279 281 281 279 277 277 280 282 284 285 283 281 277
156 148 144 138 133 133 133 131 128 129 130 128 124 118 117 116 109 102 93 98 101 95 98 112 93 68 70 76 86 109 101 83 56 27 14 2 358 7 12 5 358 349 343 339 332 334 343 338 334 336 325 317 318 311 301 294 289 286 284 280 275 272 271 269 269 269 270 272 272 273 274 275 277 278 277 275 273 275 278 278 280 282 284 286 284
173 163 158 155 151 146 144 144 140 134 129 121 111 105 97 91 101 178 286 280 217 231 238 237 251 275 277 268 262 258 262 313 34 24 14 358 349 357 359 352 349 340 334 334 330 329 337 338 332 332 329 322 323 321 311 301 292 286 285 289 290 287 286 284 283 282 279 277 275 274 274 274 274 274 274 274 274 275 276 276 278 279 280 283 285
188 178 172 170 167 166 166 165 156 143 132 120 107 89 62 31 350 320 305 294 280 270 268 264 258 266 274 274 269 265 272 290 305 330 347 340 331 340 348 343 339 334 330 328 325 324 328 332 332 330 329 326 324 325 320 311 303 292 282 282 285 286 292 296 296 297 295 288 283 280 278 277 276 275 275 274 274 274 273 273 276 278 280 281 282
200 194 190 188 186 186 188 190 181 166 156 149 139 106 354 317 313 311 306 301 296 288 287 285 278 276 279 279 276 270 270 280 289 300 316 321 319 323 328 328 326 325 323 321 319 318 319 323 328 327 327 326 323 322 319 313 309 302 293 287 283 278 280 283 284 291 299 299 295 288 282 278 276 276 275 274 273 270 269 269 272 275 277 280 281
206 203 202 199 197 197 200 203 200 196 191 192 217 265 282 288 289 292 294 293 293 291 289 288 286 286 287 284 280 278 274 276 282 286 293 300 301 303 308 313 317 317 316 314 314 314 314 316 320 322 322 321 320 319 315 308 304 301 298 296 291 283 278 277 283 291 294 296 297 294 289 283 280 280 280 279 277 272 269 268 269 271 274 276 279
210 208 206 204 205 209 214 218 220 220 219 227 253 274 282 286 284 283 285 283 284 286 285 284 283 285 288 287 282 280 278 278 282 283 283 288 289 291 298 305 309 311 311 310 310 310 311 312 314 316 317 316 315 315 312 306 302 299 295 294 294 291 288 284 286 288 287 287 288 287 283 279 279 281 283 284 283 279 276 272 270 269 269 269 270
211 210 209 209 212 217 224 230 235 239 243 257 279 286 283 281 278 273 273 275 278 279 279 279 278 278 282 283 278 277 278 278 280 282 282 284 287 287 291 297 301 302 303 305 307 309 310 310 311 313 314 313 313 313 310 307 305 304 301 297 294 292 291 291 288 283 282 284 285 284 283 283 284 283 280 281 282 281 279 276 272 270 267 265 263
208 206 206 209 213 222 235 244 251 257 257 266 283 285 276 272 270 265 264 270 272 273 275 275 273 273 274 275 273 272 274 275 276 280 281 279 279 279 281 286 292 297 300 304 307 308 309 309 310 311 312 313 314 314 311 307 304 301 300 299 297 294 291 290 290 288 285 282 280 280 281 284 286 284 278 277 279 281 282 279 275 271 269 266 261
209 205 204 209 214 224 240 252 258 259 257 268 281 281 272 266 265 263 266 270 266 265 269 271 271 269 268 270 270 269 272 274 275 278 279 277 278 277 277 282 289 294 299 303 306 307 307 309 310 311 311 312 313 312 310 307 305 300 297 298 298 297 294 292 293 294 292 288 284 281 280 281 280 275 270 268 270 277 282 281 275 270 267 266 262
209 210 221 231 231 232 239 248 252 252 255 267 277 275 267 264 265 264 267 268 264 261 263 266 267 267 265 266 267 267 269 271 273 275 275 277 278 276 278 287 294 297 299 303 306 306 307 309 311 312 311 311 314 314 312 313 314 311 305 302 299 297 296 293 292 292 292 290 288 285 283 284 280 272 266 264 264 270 276 277 276 270 266 265 263
223 235 244 247 245 239 240 248 253 255 258 265 270 268 267 268 270 270 269 269 267 265 263 263 263 262 262 263 264 264 265 266 269 270 272 276 278 278 284 294 300 301 303 306 307 307 309 313 316 318 317 315 316 318 317 317 316 311 308 306 303 302 301 297 293 291 291 291 288 284 280 280 279 274 270 268 268 273 275 274 273 271 267 264 262
237 240 238 239 240 239 243 252 256 258 259 261 264 266 267 270 272 273 273 271 269 267 266 264 261 258 257 259 260 260 261 263 265 266 268 273 276 281 290 298 302 303 305 308 309 310 313 318 321 323 323 320 318 319 320 318 315 311 308 308 308 308 308 307 303 298 298 300 297 290 285 282 282 279 274 270 270 274 277 273 269 268 268 266 266
228 230 233 238 242 243 248 252 252 253 255 255 258 261 264 268 271 272 273 272 271 268 268 265 259 254 254 256 257 257 257 259 263 265 267 271 278 289 296 299 300 301 303 305 307 310 315 319 320 321 322 321 319 319 320 319 316 313 311 310 311 311 310 310 307 303 303 305 303 298 292 289 291 288 281 276 276 276 276 273 269 269 269 268 268
220 229 234 236 240 245 249 251 252 254 255 258 262 265 268 270 270 270 271 273 273 271 270 267 260 254 254 255 253 253 254 257 261 263 266 273 283 290 293 293 294 296 299 303 306 310 313 315 315 315 317 318 318 318 319 318 315 314 313 311 311 310 309 308 306 304 304 306 306 302 296 293 296 297 291 285 284 282 277 273 272 272 273 273 272
229 233 234 235 241 247 250 252 256 258 261 266 270 271 272 272 271 271 271 272 275 275 272 267 261 257 255 254 252 252 254 257 260 261 266 275 283 285 286 288 290 293 297 302 305 307 307 307 307 309 312 313 314 314 314 313 312 312 312 310 309 308 306 305 304 304 305 306 306 304 299 296 298 299 296 293 292 289 284 279 276 275 276 277 277
235 236 239 244 248 252 255 258 260 264 268 272 275 277 278 277 276 276 276 275 277 277 271 263 259 256 251 247 247 248 249 252 257 261 267 274 278 280 282 284 287 290 294 299 301 300 299 301 302 305 308 309 309 310 310 309 309 308 307 305 304 303 303 302 301 300 301 302 303 303 300 299 300 301 300 299 295 292 291 287 282 279 278 279 280
234 236 239 245 250 253 255 258 263 268 274 278 284 287 285 284 284 282 281 280 281 278 268 258 252 249 244 240 242 245 248 249 251 256 263 269 274 277 278 279 281 284 290 296 297 296 296 297 299 300 302 303 304 304 305 305 304 303 302 299 298 298 298 297 297 297 298 298 299 299 298 298 301 303 304 304 300 297 297 295 290 285 281 280 282
229 237 242 249 255 258 258 261 266 272 279 289 296 298 296 295 295 294 294 295 293 287 273 258 248 243 239 236 238 243 248 247 247 254 262 269 275 277 276 276 277 281 289 292 292 292 292 292 293 294 296 298 299 299 299 298 298 298 297 295 295 295 293 293 294 295 295 295 296 297 297 297 301 303 303 304 303 302 304 304 299 293 286 281 279
222 234 246 258 266 271 273 274 276 280 286 294 299 303 307 310 309 307 304 303 300 290 275 258 244 236 232 232 237 244 247 247 251 258 265 271 275 276 275 274 276 281 286 286 285 285 285 285 286 288 289 290 291 292 292 292 291 292 291 291 292 292 290 290 292 293 294 294 295 298 298 297 299 300 300 300 299 297 301 305 302 296 289 282 279
232 238 246 254 262 270 275 278 282 285 290 295 297 299 304 310 315 313 303 292 286 277 266 254 243 238 238 243 248 249 248 250 257 262 265 270 272 272 271 272 275 280 282 282 283 284 284 285 286 288 289 289 289 290 290 290 291 291 290 290 291 291 289 288 290 292 293 294 296 298 297 296 299 301 302 302 298 294 290 286 291 294 290 285 281